Weather History for Cape Girardeau, MO

Change the Weather History Date:

Wednesday, February 27, 2013

  Actual Average Record
Temperature  
Mean Temperature 37 °F 42 °F  
Max Temperature 40 °F 52 °F 75 °F (1981)
Min Temperature 34 °F 31 °F 10 °F (1993)
Degree Days  
Heating Degree Days 28 23  
Month to date heating degree days 711 736  
Since 1 July heating degree days 3210 3474  
Cooling Degree Days 0 0  
Month to date cooling degree days 0 0  
Year to date cooling degree days 0 0  
Moisture  
Dew Point 31 °F    
Average Humidity 75    
Maximum Humidity 85    
Minimum Humidity 64    
Precipitation  
Precipitation T in 0.12 in 1.07 in (1984)
Month to date precipitation 3.04 3.29  
Year to date precipitation 6.62 6.76  
Sea Level Pressure  
Sea Level Pressure 29.85 in    
Wind  
Wind Speed 13 mph (West)    
Max Wind Speed 21 mph    
Max Gust Speed 25 mph    
Visibility 9 miles    
Events Rain , Snow    
T = Trace of Precipitation, MM = Missing Value Source: NWS Daily Summary

Daily Weather History Graph

Daily Weather History Graph

Search for Another Location

Airport:

Trip Planner

Search our weather history database for the weather conditions in past years. The results will help you decide how hot, cold, wet, or windy it might be!

Date:

Astronomy

Feb. 27, 2013 Rise Set
Actual Time 6:31 AM CST 5:50 PM CST
Civil Twilight 6:05 AM CST 6:16 PM CST
Nautical Twilight 5:35 AM CST 6:47 PM CST
Astronomical Twilight 5:05 AM CST 7:17 PM CST
Moon 8:07 PM CST (2/27) 7:10 AM CST (2/27)
Length of Visible Light 12h 11m
Length of Day
11h 18m
Waning Gibbous, 96% of the Moon is Illuminated
Feb 27
Waning Gibbous
Mar 4
Last Quarter
Mar 11
New
Mar 19
First Quarter
Mar 27
Full

Hourly Weather History & Observations

Time (CST) Temp. Windchill Dew Point Humidity Pressure Visibility Wind Dir Wind Speed Gust Speed Precip Events Conditions
12:53 AM 37.9 °F 29.2 °F 32.0 °F 79% 29.73 in 10.0 mi West 15.0 mph - N/A   Overcast
1:53 AM 37.9 °F 30.0 °F 32.0 °F 79% 29.75 in 10.0 mi West 12.7 mph - N/A   Overcast
2:53 AM 37.0 °F 29.3 °F 32.0 °F 82% 29.73 in 10.0 mi West 11.5 mph - N/A   Overcast
3:53 AM 37.0 °F 28.9 °F 32.0 °F 82% 29.76 in 10.0 mi West 12.7 mph - N/A   Overcast
4:53 AM 37.0 °F 28.5 °F 30.9 °F 79% 29.78 in 10.0 mi West 13.8 mph - N/A   Overcast
5:53 AM 37.0 °F 29.8 °F 30.9 °F 79% 29.80 in 10.0 mi West 10.4 mph - N/A   Overcast
6:51 AM 37.4 °F 29.8 °F 30.2 °F 75% 29.81 in 10.0 mi West 11.5 mph - N/A   Overcast
6:53 AM 37.0 °F 29.8 °F 30.0 °F 76% 29.81 in 10.0 mi West 10.4 mph - N/A   Overcast
7:53 AM 37.0 °F 30.4 °F 30.0 °F 76% 29.83 in 10.0 mi West 9.2 mph - N/A   Overcast
8:53 AM 37.9 °F 30.0 °F 28.9 °F 70% 29.84 in 10.0 mi West 12.7 mph - N/A   Overcast
9:53 AM 39.0 °F 31.0 °F 28.9 °F 67% 29.83 in 10.0 mi West 13.8 mph - N/A   Overcast
10:53 AM 39.9 °F 31.8 °F 30.0 °F 68% 29.84 in 10.0 mi West 15.0 mph - N/A   Overcast
11:53 AM 39.0 °F 30.3 °F 30.0 °F 70% 29.85 in 10.0 mi WSW 16.1 mph - N/A   Overcast
12:53 PM 39.0 °F 29.3 °F 30.0 °F 70% 29.84 in 10.0 mi West 19.6 mph - N/A   Overcast
1:49 PM 37.4 °F 27.5 °F 32.0 °F 81% 29.84 in 8.0 mi West 18.4 mph - 0.00 in Rain Light Rain
1:53 PM 37.9 °F 28.5 °F 32.0 °F 79% 29.84 in 6.0 mi WSW 17.3 mph - 0.00 in Rain Light Rain
2:11 PM 39.2 °F 30.2 °F 33.8 °F 81% 29.83 in 10.0 mi WSW 17.3 mph - 0.00 in   Overcast
2:53 PM 39.0 °F 30.6 °F 34.0 °F 82% 29.85 in 10.0 mi West 15.0 mph - 0.00 in   Overcast
3:04 PM 37.4 °F 27.8 °F 33.8 °F 87% 29.84 in 9.0 mi West 17.3 mph - N/A   Overcast
3:13 PM 39.2 °F 31.6 °F 33.8 °F 81% 29.84 in 7.0 mi West 12.7 mph - N/A   Overcast
3:53 PM 39.0 °F 29.9 °F 32.0 °F 76% 29.86 in 10.0 mi West 17.3 mph - N/A   Overcast
4:53 PM 37.9 °F 27.9 °F 30.0 °F 73% 29.87 in 10.0 mi West 19.6 mph - N/A   Overcast
5:53 PM 37.9 °F 30.9 °F 30.9 °F 76% 29.88 in 10.0 mi West 10.4 mph - N/A   Overcast
6:53 PM 37.0 °F 29.3 °F 30.0 °F 76% 29.91 in 9.0 mi WNW 11.5 mph - 0.00 in   Overcast
7:53 PM 36.0 °F 29.0 °F 30.0 °F 79% 29.92 in 6.0 mi WNW 9.2 mph - 0.00 in Snow Light Snow
8:00 PM 35.6 °F 29.2 °F 30.2 °F 81% 29.91 in 7.0 mi WNW 8.1 mph - 0.00 in Snow Light Snow
8:32 PM 35.6 °F 28.0 °F 30.2 °F 81% 29.91 in 9.0 mi WNW 10.4 mph - 0.00 in Snow Light Snow
8:53 PM 35.1 °F 29.3 °F 30.0 °F 82% 29.93 in 5.0 mi WNW 6.9 mph - 0.00 in Snow Light Snow
9:53 PM 35.1 °F 28.6 °F 30.0 °F 82% 29.93 in 9.0 mi WNW 8.1 mph - 0.00 in   Overcast
10:53 PM 35.1 °F 25.5 °F 26.1 °F 70% 29.93 in 10.0 mi NW 15.0 mph - N/A   Overcast
11:53 PM 34.0 °F 25.0 °F 25.0 °F 70% 29.93 in 10.0 mi NW 12.7 mph - N/A   Overcast